User: anonymous   Login
Location: Caltech
(34.1382°N, 118.1253°W)
Time: 17:06:47
(UTC-07:00)
Language:

ADEOS II - Orbit

View from above orbital plane
View from above orbital plane
View from above satellite
View from above satellite

Ground track
Ground track

The orbit data is extracted from the following two-line orbital elements,

1 27597U 02056A   17173.87046853 +.00000020 +00000-0 +25147-4 0  9998
2 27597 098.3695 143.1902 0000977 037.5393 322.5857 14.27290195756230
Epoch (UTC): 22 June 2017 20:53:28
Eccentricity: 0.0000977
inclination: 98.3695°
perigee height: 800 km
apogee height: 801 km
right ascension of ascending node: 143.1902°
argument of perigee: 37.5393°
revolutions per day: 14.27290195
mean anomaly at epoch: 322.5857°
orbit number at epoch: 75623

The dashed part of the orbit path shows where the satellite is in the earth's shadow,  

DLR